Weather in Tishino

Russia / Kaliningrad Oblast     54°29′58″N   20°45′33″E
temp.,
°C
wind,
m/s
gust,
m/s
humid.,
%
clouds,
%
prec.,
mm/h
press.,
hPa
HPBL,
m
28 february, sun
sun2823:00+1wnw49930 0.0 1031276
02:00+2w498845 0.0 1031243
05:00+2w5108972 0.0 1030275
08:00+2w5119663 0.0 1029358
11:00+4wnw71191100 0.0 1028637
14:00+5nw5885100 0.0 1029582
17:00+5wnw6108679 0.0 1028528
20:00+3wnw499148 0.0 1030279
1 march, mon
mon123:00+2nw49910 0.0 1030209
02:00+2wnw36910 0.0 1032129
05:00+1wnw34910 0.0 103183
08:00+1wnw33910 0.0 103266
11:00+6wnw36750 0.0 1032295
14:00+9w46650 0.0 1032435
17:00+8wsw37700 0.0 1030454
20:00+5w411870 0.0 1030324
2 march, tue
tue223:00+3w4128414 0.0 1030393
02:00+2w5119323 0.0 1030291
05:00+1w36953 0.0 1029145
08:00+1w36961 0.0 1030119
11:00+6w35820 0.0 1031285
14:00+7w45740 0.0 1031420
17:00+6wnw47830 0.0 1030425
20:00+4wnw379520 0.0 1030379
3 march, wed
wed323:00+2nw359391 0.0 1030258
02:00+2wnw248796 0.0 1031350
05:000wnw229473 0.0 103094
08:00+1w128985 0.0 1030267
11:00+3ssw117793 0.0 1030355
14:00+7ssw126149 0.0 1029504
17:00+8ssw12660 0.0 102772
20:00+4sw22840 0.0 102523
4 march, thu
thu423:00+3ssw368926 0.0 1023104
02:00+3sw498927 0.0 1021165
05:00+3wsw410930 0.0 1018241
08:00+2wsw499518 0.0 1016272
11:00+5w588696 0.0 1015508
14:00+6w587998 0.0 1013669
17:00+6wnw478488 0.0 1011648
20:00+4wnw249494 0.1 1010146